Regional Weather Roundup
Issued by NWS

Home | Current Version | Previous Version | Text Only | Print | Product List | Glossary Off
Versions: 1 2 3 4 5 6 7 8 9 10 11 12 13 14 15 16 17 18 19 20 21 22 23 24 25 26 27 28 29 30 31 32 33 34 35 36 37 38 39 40 41 42 43 44 45 46 47 48 49 50

435
ASUS43 KDTX 220410
RWRMI
MICHIGAN HOURLY REGIONAL WEATHER ROUNDUP
NATIONAL WEATHER SERVICE DETROIT/PONTIAC MI
1200 AM EDT FRI SEP 22 2017

NOTE: "FAIR" INDICATES FEW OR NO CLOUDS BELOW 12,000 FEET WITH NO
SIGNIFICANT WEATHER AND/OR OBSTRUCTION TO VISIBILITY.

MIZ047>049-052>055-059>063-066>070-074>076-081>083-220500-
SOUTHEAST LOWER MICHIGAN

CITY           SKY/WX    TMP DP  RH WIND       PRES   REMARKS
ADRIAN         PTCLDY    71  65  81 CALM      30.09F
ALMA           CLEAR     66  62  85 CALM      30.07R
ANN ARBOR      PTCLDY    72  67  84 CALM      30.08F
BAD AXE        CLEAR     73  67  82 SE5       30.08S
CARO           CLEAR     67  64  90 SW3       30.07S
DETROIT CITY   CLEAR     72  65  78 S7        30.08S
DETROIT        PTCLDY    73  68  84 SW3       30.09R
FLINT          CLEAR     69  60  73 SE6       30.08R
GROSSE ILE     PTCLDY    73  66  79 SE6       30.07S
HILLSDALE      CLEAR     68  63  83 SE6       30.09F
HOWELL         PTCLDY    69  63  81 CALM      30.08S

CITY           SKY/WX    TMP DP  RH WIND       PRES   REMARKS
JACKSON        PTCLDY    71  62  73 S5        30.08S
LAMBERTVILLE   PTCLDY    73  68  84 CALM      30.09R
LANSING        CLOUDY    68  65  90 CALM      30.07S
LAPEER         FAIR      70  66  86 CALM      30.09R
MASON          CLOUDY    70  64  81 SE6       30.08R
MONROE         PTCLDY    73  66  78 E5        30.08S
MT. CLEMENS    CLEAR     70  70 100 SE7       30.07F
PONTIAC        PTCLDY    72  64  76 SE6       30.08R
PORT HOPE        N/A     74  69  85 VRB5      30.05F
PORT HURON     CLEAR     72  63  73 SE6       30.09F
TRI CITIES     PTCLDY    68  63  84 CALM      30.08R
MIDLAND        FAIR      67  62  85 CALM      30.07R
TROY           CLOUDY    74  65  73 SE5       30.11R
SAGINAW HB     PTCLDY    64  61  88 SW5       30.08R
$$
MIZ043>046-050>051-056>058-064>065-071>073-077>080-220500-
SOUTHWEST LOWER MICHIGAN

CITY           SKY/WX    TMP DP  RH WIND       PRES   REMARKS
BATTLE CREEK   CLEAR     71  66  84 SE7       30.08S
BENTON HARBOR  CLEAR     73  69  87 E6        30.05R
BIG RAPIDS     CLEAR     65  62  91 CALM      30.06S
COLDWATER      CLEAR     73  65  76 SE6       30.08S
FREMONT        FAIR      69  68  98 CALM      30.05S
HOLLAND        CLEAR     72  64  76 S6        30.06R
GRAND RAPIDS   PTCLDY    71  64  78 S5        30.06R
IONIA          FAIR      67  63  86 CALM      30.06R
KALAMAZOO      CLEAR     72  63  73 SE3       30.07S
LUDINGTON      PTCLDY    66  65  97 CALM      30.03R
MARSHALL       CLEAR     69  66  88 SE5       30.07S
MOUNT PLEASANT CLEAR     71  66  83 S3        30.06R
MUSKEGON       CLEAR     77  65  66 SE7       30.04S
SOUTH HAVEN    CLEAR     74  66  75 SE3       30.05S
$$
MIZ016>042-220500-
NORTHERN LOWER MICHIGAN

CITY           SKY/WX    TMP DP  RH WIND       PRES   REMARKS
ALPENA         CLEAR     66  66 100 CALM      30.06S FOG
BEAVER ISLAND    N/A     65  65  99 CALM      30.04S FOG
BELLAIRE       FOG       64  62  95 CALM      30.05R VSB 3/4
CADILLAC       CLOUDY    65  62  90 CALM      30.08S
CHARLEVOIX     CLEAR     67  67 100 SE5       30.06F
FRANKFORT      CLOUDY    64  64 100 CALM      30.03S
GAYLORD        FOG       66  64  93 CALM      30.08S VSB 1
GRAYLING       FOG       65  63  94 CALM      30.08S VSB 1
HARBOR SPRINGS CLEAR     67  66  95 NE3       30.04F
HOUGHTON LAKE  FOG       66  64  93 CALM      30.08S VSB 1
MANISTEE       FOG       66  66 100 E5        30.03S VSB 3/4
OSCODA         CLEAR     69  69 100 CALM      30.05S
PELLSTON       FOG       64  63  96 CALM      30.05S VSB 1/2
ROGERS CITY    CLEAR     64  63  97 CALM      30.06S FOG
TRAVERSE CITY  CLOUDY    66  63  90 CALM      30.03R
$$
MIZ007>008-015-220500-
EASTERN UPPER MICHIGAN

CITY           SKY/WX    TMP DP  RH WIND       PRES   REMARKS
KINROSS        CLEAR     66  65  96 E5        30.06S FOG
MACKINAC ISLAN CLOUDY    66  66 100 E6        30.06R FOG
NEWBERRY       PTCLDY    65  64  97 SE5       30.04S FOG
S. S. MARIE    CLEAR     67  65  93 CALM      30.05S FOG
MUNISING         N/A     63  63 100 S7        30.01S
$$
MIZ004>006-011>014-085-220500-
CENTRAL UPPER MICHIGAN

CITY           SKY/WX    TMP DP  RH WIND       PRES   REMARKS
MANISTIQUE     HAZE      63  58  81 SE3       30.03R VSB 3/4
ESCANABA       FOG       66  66 100 S5        30.02S VSB 1
MENOMINEE      CLOUDY    66  65  96 SE5       30.02S FOG
SAWYER-GWINN   CLEAR     60  57  91 S6        30.03S
$$
MIZ001>003-009>011-084-220500-
WESTERN UPPER MICHIGAN

CITY           SKY/WX    TMP DP  RH WIND       PRES   REMARKS
IRON MOUNTAIN  PTCLDY    67  64  90 SE3       30.01S FOG
HOUGHTON       CLEAR     60  56  86 E7        29.97F
COPPER HARBOR    N/A     61  59  93 SW9G17    29.96F
IRONWOOD       PTCLDY    72  66  81 S12G18    29.94S
$$

ABBREVIATIONS USED IN REMARKS
   TC - TEMPERATURE IN CELSIUS
  WCI - WIND CHILL INDEX
   HX - HEAT INDEX
  VSB - VISIBILITY





USA.gov is the U.S. government's official web portal to all federal, state and local government web resources and services.